Flag for Iran Weather past 2 weeks in Behbahan, Iran

Now
88 °F

Clear.


Feels Like: 84 °F
Forecast: 82 / 114 °F
Wind: 5 mph from West

Location: Gach Saran Du Gunbadan

Current Time: Jul 1, 2015 at 1:58:06 AM

Latest Report: Jul 1, 2015 at 1:30 AM


Visibility: 10 mi

Pressure: 29.77 "Hg

Humidity: 13%

Dew point: 30 °F

Location of BehbahanLocation

Historic Weather in Behbahan — Graph

°F

Behbahan temperature yesterday

Maximum temperature yesterday: 104 °F (at 12:30 PM)
Minimum temperature yesterday: 77 °F (at 6:30 AM)
Average temperature yesterday: 93 °F

Past Weeks' High & Low Weather Summary

 TemperatureHumidityPressure
High106 °F (Jun 16, 3:30 PM)27% (Jun 27, 6:30 AM)29.80 "Hg (Jun 27, 6:30 AM)
Low75 °F (Jun 18, 6:30 AM)5% (Jun 16, 3:30 PM)29.59 "Hg (Jun 21, 2:29 AM)
Average92 °F13%29.67 "Hg
* Reported Jun 16 3:30 PM — Jul 1 12:30 AM, Behbahan, Weather by CustomWeather, © 2015

Note: Actual official high and low records may vary slightly from our data, if they occured in-between our weather recording intervals... More about our weather records

Advertising

Behbahan weather history for previous 24 hours

 ConditionsComfort  
Time TempWeatherWind HumidityBarometerVisibility
12:30 AM
Wed, Jul 1
90 °FClear.7 mph13%29.77 "Hg10 mi
11:30 PM
Tue, Jun 30
93 °FClear.9 mph12%29.77 "Hg10 mi
10:30 PM95 °FClear.7 mph11%29.77 "Hg10 mi
9:30 PM97 °FSunny.7 mph9%29.77 "Hg10 mi
8:30 PM99 °FSunny.9 mph9%29.77 "Hg10 mi
7:30 PM100 °FClear.12 mph8%29.74 "Hg5 mi
6:30 PM102 °FClear.12 mph8%29.74 "Hg5 mi
5:30 PM104 °FClear.14 mph7%29.74 "Hg5 mi
4:30 PM104 °FClear.12 mph8%29.77 "Hg5 mi
3:30 PM104 °FClear.12 mph7%29.77 "Hg5 mi
1:30 PM104 °FSunny.7 mph7%29.80 "Hg10 mi
12:30 PM104 °FSunny.2 mph8%29.80 "Hg10 mi
11:30 AM100 °FSunny.2 mph10%29.80 "Hg10 mi
10:30 AM97 °FSunny.5 mph11%29.80 "Hg10 mi
9:30 AM93 °FSunny.2 mph11%29.80 "Hg10 mi
8:30 AM88 °FSunny.No wind18%29.80 "Hg10 mi
7:30 AM82 °FClear.No wind20%29.77 "Hg10 mi
6:30 AM77 °FClear.No wind21%29.74 "Hg10 mi
5:30 AM79 °FClear.No wind20%29.74 "Hg10 mi
4:30 AM81 °FClear.No wind21%29.74 "Hg10 mi
3:30 AM82 °FClear.No wind21%29.71 "Hg10 mi
2:30 AM86 °FClear.No wind18%29.74 "Hg10 mi
1:30 AM88 °FClear.5 mph16%29.74 "Hg10 mi
Weather by CustomWeather, © 2015

See weather overviewHow to use our weather pages